ASTROCAST-0103 (47487 NORAD) Tracking and Keplerian Element Data

This shows tracking and keplerian element data for the satellite.

Feedback or suggestion? Click here.




ElementValue
Catalog47487
NameASTROCAST-0103
Epoch Orbit1198
Epoch Day101.88496397
Epoch Year2021
RAAN164.2542
Inclination97.499
Eccentricity0.0010235
Argument of Perigee341.8536
Mean Anonmoly18.2328
Mean Motion15.12351943
Decay Rate8.95E-06
L11 47487U 21006CC 21101.88496397 .00000895 00000-0 55289-4 0 9993
L22 47487 97.4990 164.2542 0010235 341.8536 18.2328 15.12351943 11982

Live tracking and technical data element details for ASTROCAST-0103 (NORAD 47487). ASTROCAST-0103 can be tracked NOW for your location showing map with azimuth and elevation plus other details from your city location.

Track the satellite on the map from your city or location and see movement details for azimuth, elevation, latitude, longitude, range, height, and movement on the map or in text.







IsCatalogInMostPopularTable: catalog: 47487, numindb: 14
Update: records affected: 1



GetName: 47487 ASTROCAST-0103

Hit Count: updated at: Tue, 13 Apr 2021 04:38:36 GMT